星链-37035(STARLINK-37035)

导读

STARLINK-37035(NORAD编号68180)是SpaceX星链星座的第二代低轨通信卫星,属于Starlink V2 Mini批次,旨在为全球提供高速宽带互联网服务。该卫星运行在近地轨道,采用先进的相控阵天线与E-band回程技术,单星带宽可达100Gbps,相比前代提升四倍,同时配备激光星间链路,支持卫星间直接高速通信,降低对地面基站依赖。其重量约800公斤,采用大尺寸太阳能阵列,峰值功率达5kW,为手机直连业务提供技术支撑,助力星链实现全球无缝覆盖,提升网络稳定性与接入能力,是星链星座扩容升级的重要组成部分。

Basic Information
目录编号:
68180
目录名称:
STARLINK-37035
国际标识:
2026-050P
轨道中心:
EARTH
卫星名称:
星链-37035
卫星全名:
星链-37035(STARLINK-37035)
卫星状态:
在轨 (已飞行175 天)
发射日期:
2026-03-14 UTC
国别 :
美国 (US)
星等 :
--
Orbit Information
数据来源 国际轨道数据
星历时间: 2026-09-04T13:57:46+0800
1天前
查看轨道信息
半长轴: 6840.824km
偏心率: 0.0001261
轨道倾角: 53.158°
近地点辐角 101.296°
升交点赤经 153.652°
平近点角 258.818°
近地点: 461.824km
远地点: 463.55km
周期: 93.847分钟
每日圈数: 15.344057
Detailed Information
固有亮度:
5
最大亮度:
2.5
卫星平台:
Starlink V1.0
覆盖范围:
全球
运营商:
太空探索技术公司
运营商所在国:
美国
制造商(研发单位):
太空探索技术公司
制造商所在国:
美国
使用方式:
暂无
Satellite Introduction
Starlink 计划是 SpaceX 推出的全球卫星互联网项目,通过发射低轨道卫星,为全球尤其是偏远地区提供高速、低延迟的互联网服务。自 2019 年起,Starlink 已部署数千颗卫星,旨在缩小全球数字鸿沟,推动互联网普及。该项目还为军事、航空等行业提供通信支持,带来广泛经济效益。
2D Orbit Map
3D Orbit Map
Orbit Altitude Analysis Chart
Orbit Inclination Analysis Chart
Orbit Comprehensive Analysis Chart
View Comprehensive Chart
Conjunction Data List
Event ID Objects TCA Miss Dist (km) Collision Risk Probability Collision Risk Index (CRI) Action
CDM_260907-175205-314106-818021
2026-09-07T
17:52:43+0000
0.700 km
远距离
5.359414E-5 中风险 0.7
CDM_260901-044805-632106-818021
2026-09-01T
04:48:36+0000
0.840 km
远距离
3.697117E-5 中风险 0.66
CDM_260907-192605-314106-818021
2026-09-07T
19:26:30+0000
1.610 km
极远距离
3.362014E-6 低风险 0.46
CDM_260901-053505-632106-818021
2026-09-01T
05:35:30+0000
1.924 km
极远距离
2.461025E-6 低风险 0.43
CDM_260901-034105-246906-818021
2026-09-01T
03:41:32+0000
2.693 km
极远距离
1.386952E-6 低风险 0.38
CDM_260905-145405-230506-818023
2026-09-05T
14:54:29+0000
2.801 km
极远距离
1.277721E-6 低风险 0.37
CDM_260907-080905-246506-818022
2026-09-07T
08:09:58+0000
2.893 km
极远距离
1.250788E-6 低风险 0.37
CDM_260907-161805-314106-818021
2026-09-07T
16:18:55+0000
2.728 km
极远距离
1.018449E-6 低风险 0.35
CDM_260907-061705-263806-818021
2026-09-07T
06:17:21+0000
2.614 km
极远距离
5.872606E-7 极低风险 0.3